Regional Weather Roundup
Issued by NWS

Home | Current Version | Previous Version | Text Only | Print | Product List | Glossary Off
Versions: 1 2 3 4 5 6 7 8 9 10 11 12 13 14 15 16 17 18 19 20 21 22 23 24 25 26 27 28 29 30 31 32 33 34 35 36 37 38 39 40 41 42 43 44 45 46 47 48 49 50

000
ASUS43 KMPX 300101
RWRMN
WEATHER ROUNDUP FOR MINNESOTA
NATIONAL WEATHER SERVICE TWIN CITIES/CHANHASSEN MN
800 PM CDT MON AUG 29 2016


NOTE: "FAIR" INDICATES FEW OR NO CLOUDS BELOW 12,000 FEET WITH NO
SIGNIFICANT WEATHER AND/OR OBSTRUCTIONS TO VISIBILITY. N/A MEANS
CURRENT SKY AND/OR WEATHER CONDITIONS ARE NOT AVAILABLE.

MNZ060>063-068>070-300200-
   Twin Cities Metro

CITY           SKY/WX    TMP DP  RH WIND       PRES   REMARKS
TWIN CITIES    MOCLDY    82  67  60 VRB6      30.12R
ST PAUL        PTCLDY    79  68  69 S6        30.12R
CRYSTAL        MOCLDY    82  70  66 S6        30.11R
BLAINE         MOCLDY    81  72  74 S7        30.11S
LAKEVILLE      PTCLDY    72  72 100 CALM      30.14R
EDEN PRAIRIE   PTCLDY    79  71  76 S5        30.11R
LAKEVILLE      PTCLDY    72  72 100 CALM      30.14R
SOUTH ST PAUL  PTCLDY    79  69  70 S3        30.12R
LAKE ELMO      MOCLDY    79  73  83 S7        30.13R
$$
MNZ001>005-007-008-013>017-022>024-027-028-300200-
   Northwest Minnesota

CITY           SKY/WX    TMP DP  RH WIND       PRES   REMARKS
BEMIDJI        CLEAR     69  62  76 NW8       30.14S
HALLOCK        CLEAR     68  55  64 NW5       30.16S
ROSEAU         CLEAR     68  57  68 W5        30.16R
WARROAD        CLEAR     66  57  72 W6        30.15S
THIEF RVR FALL CLEAR     68  56  65 N7        30.17S
CROOKSTON      CLEAR     70  59  68 N5        30.16S
FOSSTON        CLEAR     66  57  72 N6        30.16F
DETROIT LAKES  CLEAR     72  64  78 NW7       30.17S
MOORHEAD       CLEAR     73  63  68 N5        30.15S
PARK RAPIDS    CLEAR     73  65  75 NW9       30.13F
MAHNOMEN       FAIR      70  64  83 NW5       30.15F
$$
MNZ006-009>011-018-025>026-300200-
   North Central Minnesota

CITY           SKY/WX    TMP DP  RH WIND       PRES   REMARKS
BAUDETTE       CLEAR     67  59  75 NW7       30.13R
FLAG ISLAND    CLEAR     70  55  60 W3        30.12S
INTL FALLS     PTCLDY    69  61  75 NW6       30.10S
WASKISH        CLEAR     72  61  68 NW8       30.13S
BIG FORK       CLEAR     72  64  78 W3        30.11F
LONGVILLE      PTCLDY    73  66  78 CALM      30.12S
CRANE LAKE     CLEAR     68  66  94 CALM      30.10F
ORR            PTCLDY    70  64  83 CALM      30.08S
COOK           CLEAR     72  66  83 CALM      30.10S
WALKER         FAIR      69  64  83 NW5       30.13S
$$
MNZ012-019>021-037-300200-
   Northeast Minnesota

CITY           SKY/WX    TMP DP  RH WIND       PRES   REMARKS
DULUTH         CLOUDY    76  69  79 CALM      30.11R
ELY            PTCLDY    72  66  83 CALM      30.09F
HIBBING        CLOUDY    73  68  84 W3        30.11S
EVELETH        MOCLDY    73  67  80 CALM      30.12S
DULUTH HARBOR  CLOUDY    79  73  83 S6        30.08R
TWO HARBORS    CLOUDY    75  72  88 CALM      30.08S
SILVER BAY     PTCLDY    73  70  88 CALM      30.08R
GRAND MARAIS     N/A     66  64  93 CALM      30.05F
G MARAIS ARPRT CLEAR     64  61  88 CALM      30.12S
$$
MNZ029>031-032-039>041-046>048-054>057-064-300200-
   West Central Minnesota

CITY           SKY/WX    TMP DP  RH WIND       PRES   REMARKS
FERGUS FALLS   CLEAR     73  66  78 N5        30.14S
WHEATON        CLOUDY    79  72  78 N10       30.14R
ALEXANDRIA     CLOUDY    77  71  82 NW3       30.14S
ELBOW LAKE     FAIR      76  71  85 NW13      30.13S
WADENA         CLEAR     73  68  83 NW8       30.13S
GLENWOOD       CLOUDY    79  73  83 W5        30.13R
APPLETON       RAIN      81  75  83 N6        30.10R
BENSON         PTCLDY    81  73  78 SW3       30.11S
ORTONVILLE     CLOUDY    79  72  78 CALM      30.11S
MADISON        CLOUDY    81  73  78 CALM      30.10S
WILLMAR        FAIR      81  73  78 CALM      30.12R
$$
MNZ033>034-036-042>043-049>051-058-059-300200-
   Central Minnesota

CITY           SKY/WX    TMP DP  RH WIND       PRES   REMARKS
ST CLOUD       CLEAR     78  74  87 S8        30.09F
SAUK CENTRE    FAIR      78  73  83 W6        30.10F
PAYNESVILLE    PTCLDY    78  71  81 CALM      30.11S
AITKIN         MOCLDY    75  68  78 CALM      30.10R
PINE RIVER     MOCLDY    75  68  78 NW8       30.14S
BRAINERD       PTCLDY    77  70  79 NW3       30.10S
STAPLES        PTCLDY    75  70  83 NW7       30.11S
LONG PRAIRIE   FAIR      77  72  83 W6        30.11F
LITTLE FALLS   PTCLDY    75  72  88 CALM      30.09S
LITCHFIELD     PTCLDY    79  73  83 CALM      30.12R
BUFFALO        MOCLDY    80  72  77 CALM      30.13R
MAPLE LAKE     CLOUDY    79  75  87 CALM      30.13R
HUTCHINSON     CLEAR     79  75  89 CALM      30.13R
$$
MNZ037-044-045-052-053-300200-
   East Central Minnesota

CITY           SKY/WX    TMP DP  RH WIND       PRES   REMARKS
PRINCETON      CLOUDY    73  63  68 N8G30     30.14R THUNDER
MORA           RAIN      66  61  82 W14       30.14R
CAMBRIDGE      MOCLDY    79  66  65 NW7       30.10R
RUSH CITY      RAIN      75  71  86 CALM      30.12R
MOOSE LAKE     CLOUDY    75  68  78 SE7       30.11R
HINCKLEY       LGT RAIN  68  66  94 NE3       30.14R
CLOQUET        CLOUDY    75  68  78 CALM      30.11R
MCGREGOR       CLOUDY    77  70  78 CALM      30.12R
$$
MNZ071>073-080-081-089-090-097-098-300200-
   Southwest Minnesota

CITY           SKY/WX    TMP DP  RH WIND       PRES   REMARKS
MONTEVIDEO     PTCLDY    81  73  78 SW5       30.12R
GRANITE FALLS  PTCLDY    79  75  88 S5        30.13R
CANBY          CLOUDY    81  71  71 SW5       30.13R
MARSHALL       PTCLDY    77  72  84 SW7       30.13R
REDWOOD FALLS  PTCLDY    80  72  76 SW7       30.11F
OLIVIA         CLOUDY    77  72  83 SW5       30.11S
PIPESTONE        N/A     75  72  88 S6        30.17R
WINDOM         PTCLDY    77  68  73 SW3       30.16S
WORTHINGTON    CLOUDY    76  70  82 S3        30.18R
JACKSON        CLOUDY    77  68  73 S3        30.18R
TRACY          MOCLDY    78  72  81 S5        30.14S
SLAYTON        PTCLDY    75  70  83 S3        30.17S
$$
MNZ065>067-074>077-082>085-091>093-300200-
   South Central Minnesota

CITY           SKY/WX    TMP DP  RH WIND       PRES   REMARKS
NEW ULM        CLOUDY    77  70  78 S6        30.13S
ST JAMES       PTCLDY    75  70  83 S5        30.15S
FAIRMONT       CLEAR     73  70  90 S5        30.17R
GLENCOE        CLOUDY    79  77  92 CALM      30.12R
FARIBAULT      CLEAR     75  70  83 S3        30.15R
OWATONNA       CLEAR     75  70  83 S6        30.16R
WASECA         CLOUDY    72  66  83 S7        30.17R
ALBERT LEA     CLEAR     75  66  73 S6        30.18R
$$
MNZ078>079-086>088-094>096-300200-
   Southeast Minnesota

CITY           SKY/WX    TMP DP  RH WIND       PRES   REMARKS
ROCHESTER      CLEAR     73  71  93 S7        30.17S
RED WING       CLEAR     75  72  88 CALM      30.12R
STANTON        PTCLDY    77  68  73 SW3       30.13R
DODGE CENTER   CLEAR     73  70  88 S6        30.17R
WINONA         CLEAR     77  70  78 CALM      30.14S
AUSTIN         CLEAR     73  70  88 S5        30.18R
PRESTON        CLEAR     74  70  88 S5        30.19S
$$
ABBREVIATIONS USED IN REMARKS
   TC - TEMPERATURES IN CELSIUS
  WCI - WIND CHILL INDEX
   HX - HEAT INDEX
  VSB - VISIBILITY
$$




USA.gov is the U.S. government's official web portal to all federal, state and local government web resources and services.